Wind_Speed
0 2 4 5 6 7 8 9 9 10 11 12 13 13 13 14 15 16 17 18 19 20 22 23 23 23 24 25 26 27 27 25 26 27 28 27 27 26 27 27 26 27 27 28
2 3 5 6 6 8 9 10 11 11 12 13 14 15 14 15 17 18 18 19 20 22 23 23 24 25 26 27 28 28 27 27 27 28 28 27 27 27 27 27 27 27 27 27
4 4 6 6 7 8 10 10 11 12 13 14 16 16 16 18 18 18 19 20 22 23 24 24 25 26 27 28 28 28 27 28 29 28 28 28 28 28 28 28 27 27 27 27
5 5 6 7 8 8 9 10 11 12 13 14 15 16 16 17 18 18 19 21 23 24 25 26 27 27 27 27 27 27 28 29 30 30 29 28 28 27 27 27 26 27 26 26
5 6 7 7 8 9 9 10 11 12 13 15 15 17 16 17 17 18 19 21 23 25 26 27 27 27 27 28 28 29 29 30 31 30 30 28 27 27 26 26 26 25 25 24
7 7 8 9 9 9 10 11 11 12 13 14 15 17 17 18 18 18 19 21 23 25 26 27 27 27 28 29 30 30 30 31 31 30 31 29 27 26 25 25 23 24 23 22
8 8 9 9 10 10 11 11 12 13 14 14 15 16 18 18 19 19 20 21 23 25 26 27 27 28 29 30 30 30 31 31 30 30 29 28 26 25 24 23 23 23 23 22
9 9 10 10 11 11 11 12 12 13 14 14 15 17 18 19 20 20 21 22 24 25 26 27 27 28 29 30 30 29 29 30 29 29 28 27 26 24 24 23 23 23 22 20
9 10 11 11 12 13 13 13 13 14 15 16 16 16 18 19 20 21 22 23 24 25 26 27 28 28 28 28 28 28 28 28 28 28 28 26 24 24 23 23 22 21 21 19
10 11 12 13 13 14 14 15 15 14 16 16 17 18 19 19 21 23 24 25 25 25 26 26 26 27 27 27 28 27 27 27 27 27 26 24 22 21 20 19 19 19 19 19
11 12 13 14 14 15 15 15 15 15 16 18 19 20 21 22 23 24 25 25 25 25 25 25 26 26 27 27 27 26 26 27 26 25 23 21 19 18 18 17 17 18 18 18
12 13 14 15 15 15 16 16 16 16 17 18 20 21 21 22 23 24 24 24 24 24 25 25 26 26 26 26 25 25 25 25 24 23 20 18 16 16 16 16 16 17 17 17
13 13 14 15 15 15 16 17 17 17 18 18 20 20 21 21 22 23 23 22 23 24 24 25 25 25 25 24 24 25 24 24 22 21 18 16 14 15 16 16 16 16 16 16
14 14 15 15 16 16 16 17 18 19 19 19 20 20 20 21 21 21 21 22 23 23 23 24 24 23 22 23 24 24 23 23 21 19 17 15 14 15 15 16 17 17 16 16
15 15 15 15 16 16 17 17 18 19 19 20 20 20 21 21 22 22 22 22 22 22 22 23 22 22 21 22 23 22 22 21 19 17 16 15 15 15 15 15 16 16 15 16
16 16 16 17 18 18 18 18 19 19 20 20 20 20 20 21 22 22 22 21 21 21 21 22 22 21 21 21 21 21 20 18 17 16 16 15 14 15 15 15 15 15 15 14
17 18 19 18 19 19 19 19 20 20 21 21 20 20 20 20 21 22 21 21 21 21 22 22 20 20 20 20 20 19 18 16 15 16 15 15 15 14 14 15 14 14 14 14
20 20 21 20 20 20 20 20 20 21 21 21 20 20 20 21 21 21 21 21 21 21 21 20 20 20 19 19 19 18 17 15 15 15 16 15 14 14 14 14 14 13 14 14
22 22 22 22 21 21 20 20 21 21 21 21 20 20 21 21 21 21 22 21 21 21 19 19 20 20 19 18 18 18 16 15 16 15 16 15 15 15 14 14 13 13 14 14
23 24 24 23 23 22 21 21 22 22 21 21 21 21 21 22 22 21 21 21 21 20 19 19 19 19 18 18 18 17 16 15 15 16 16 15 15 15 15 14 13 14 14 13
24 24 24 24 24 23 23 22 22 22 22 22 21 21 21 22 22 21 21 21 22 20 19 19 18 18 18 17 17 16 15 15 15 15 15 15 15 14 14 13 12 12 13 13
25 25 25 25 25 23 23 22 22 22 22 22 22 22 22 22 22 21 21 21 21 20 18 18 17 17 17 17 16 15 14 14 14 14 14 14 15 14 13 12 12 12 12 12
26 26 26 26 26 25 24 24 23 23 22 22 22 22 22 22 22 21 21 21 20 19 17 16 16 16 16 16 15 14 13 13 13 13 13 13 13 13 12 12 12 12 11 12
27 27 27 27 26 26 26 25 24 23 23 23 23 23 22 22 22 22 22 21 20 18 16 15 15 15 15 15 14 13 12 12 12 13 12 12 12 11 11 11 12 12 13 13
27 28 28 28 27 27 27 26 26 25 24 24 24 23 22 22 22 22 22 20 19 18 16 15 15 14 14 14 12 11 11 11 11 12 12 12 11 11 11 12 12 12 12 13
28 30 30 29 28 28 27 27 27 26 25 25 25 23 22 22 22 21 21 20 18 17 16 15 15 14 13 13 11 10 10 10 10 11 11 11 11 11 11 11 12 12 12 13
Wind_Direction
306 284 285 286 280 271 268 267 267 265 268 269 274 280 278 280 281 283 288 291 294 300 301 301 302 301 301 302 302 303 302 302 300 299 298 297 296 294 291 291 292 293 293 291
282 284 291 288 287 282 277 271 270 271 273 274 277 282 284 283 289 288 290 292 295 297 298 300 301 301 300 300 301 302 302 300 301 299 298 296 294 293 293 292 292 293 293 292
296 303 294 289 290 291 287 279 274 275 275 279 284 284 286 289 294 291 289 292 296 297 298 300 300 301 301 301 302 301 301 300 299 297 294 294 292 291 292 291 292 293 293 292
312 306 298 295 296 298 296 287 281 280 284 287 290 293 293 294 295 294 291 293 294 295 296 298 299 301 302 303 303 303 303 302 299 298 293 291 290 290 290 290 291 290 290 291
306 307 309 310 309 309 308 297 290 287 289 291 293 295 297 301 300 299 297 297 295 296 298 299 301 303 305 305 305 305 304 304 302 300 297 292 290 290 290 291 292 291 291 291
313 316 320 321 317 315 314 306 299 295 293 294 295 295 299 303 302 299 300 300 300 301 301 302 303 304 305 305 306 307 307 306 305 301 299 296 292 291 292 292 291 290 291 291
314 319 324 323 320 314 313 307 298 297 295 295 298 298 300 302 304 305 306 306 303 304 304 304 305 304 305 305 305 306 306 306 305 303 301 300 295 294 291 290 290 291 290 290
311 315 320 320 320 316 313 312 307 303 301 299 297 299 301 302 305 309 309 308 306 306 307 307 308 307 308 308 307 307 307 306 306 307 306 304 299 294 292 291 291 292 290 291
309 313 315 315 317 318 315 315 315 308 305 303 304 306 306 304 306 309 310 310 310 309 310 310 311 311 311 311 309 309 308 308 308 308 308 305 301 298 297 295 294 292 289 291
307 311 313 316 317 318 317 317 317 312 309 308 310 310 311 311 310 310 311 312 311 311 311 313 314 315 315 315 314 313 312 311 312 312 310 307 305 301 298 297 296 292 291 293
305 307 310 314 317 320 320 317 317 313 311 311 311 313 315 314 314 313 313 314 313 312 312 314 316 316 316 316 316 315 315 315 315 315 312 310 306 305 303 299 294 293 296 296
301 302 307 311 316 318 316 317 316 313 312 310 310 314 316 315 317 316 314 315 315 315 316 315 316 317 318 318 318 318 318 319 319 318 315 313 308 306 306 306 300 297 299 299
303 303 306 310 312 314 313 313 312 311 312 312 310 312 314 315 318 319 317 318 318 317 317 317 317 319 320 320 321 320 321 322 324 322 317 312 309 309 306 309 304 301 302 302
302 303 303 306 309 310 310 309 308 309 308 310 310 310 312 314 317 319 318 319 320 318 318 317 317 319 321 323 324 323 322 323 324 324 321 318 313 314 312 311 310 309 305 302
298 299 300 302 305 307 308 308 308 308 309 309 310 309 310 314 316 318 318 318 321 320 320 318 317 319 323 325 326 325 325 325 328 328 324 320 317 316 315 316 314 313 310 303
296 299 301 303 303 301 304 307 308 309 310 308 309 309 309 313 315 318 318 319 319 321 322 321 318 320 323 325 326 327 328 328 331 331 328 323 321 320 319 318 317 317 316 309
297 298 299 300 301 301 302 304 305 307 308 308 307 309 311 313 316 319 320 320 320 322 322 320 321 323 325 326 328 330 331 332 334 335 334 330 326 324 323 322 320 320 319 315
295 297 297 296 297 299 303 303 303 305 307 306 305 307 309 313 315 316 317 318 320 321 322 321 322 325 328 328 329 331 332 335 336 338 339 338 335 331 327 325 324 323 323 321
294 296 296 296 296 298 301 302 302 304 304 305 304 305 307 309 311 313 313 316 319 319 321 323 324 325 328 328 330 332 333 336 338 340 341 343 341 337 333 331 329 328 330 327
291 293 294 295 295 297 299 299 300 301 302 304 305 304 306 307 309 311 313 315 317 318 319 322 324 326 327 328 330 330 331 336 339 339 340 343 343 342 340 338 334 332 335 334
288 290 291 293 294 295 297 296 297 300 302 303 303 303 305 306 308 310 311 314 317 318 317 319 322 324 327 328 329 328 329 332 337 339 342 345 345 343 344 345 344 345 348 347
288 289 291 292 294 295 294 293 294 296 298 300 301 302 303 303 305 308 310 311 316 317 317 318 320 323 324 325 326 326 327 332 337 341 343 345 348 349 349 351 353 356 356 353
286 287 289 290 292 292 292 292 292 293 295 296 298 299 301 302 303 306 309 310 311 314 314 315 317 320 322 325 326 327 328 334 341 342 342 345 349 353 354 356 358 359 359 358
284 286 287 289 289 290 290 290 289 290 293 294 295 296 298 302 303 305 306 308 308 309 307 309 315 319 321 324 325 326 329 337 345 350 352 353 354 357 1 3 3 2 0 358
283 284 286 287 287 287 287 287 287 288 290 292 293 293 295 300 303 304 305 306 307 306 306 306 310 314 315 319 322 326 330 334 342 349 353 355 356 359 2 4 4 3 3 3
283 284 284 284 284 283 283 283 283 284 286 287 289 289 291 296 301 304 304 303 303 303 303 304 306 309 312 316 320 325 328 332 340 347 353 357 2 4 3 4 5 5 7 7
Height
5853 5854 5853 5853 5853 5852 5852 5852 5851 5851 5850 5850 5850 5850 5850 5849 5848 5847 5846 5845 5844 5843 5841 5839 5837 5835 5833 5830 5827 5824 5821 5819 5816 5814 5811 5809 5807 5805 5802 5800 5799 5797 5795 5793
5854 5853 5853 5852 5851 5851 5850 5850 5849 5849 5848 5848 5847 5848 5847 5846 5845 5844 5843 5841 5840 5839 5837 5835 5833 5830 5827 5825 5822 5818 5816 5813 5810 5807 5805 5802 5800 5798 5796 5794 5792 5790 5788 5786
5853 5853 5852 5851 5850 5849 5848 5848 5847 5847 5846 5845 5845 5845 5844 5843 5842 5840 5839 5837 5836 5834 5833 5830 5828 5825 5822 5819 5816 5813 5810 5807 5804 5800 5797 5795 5793 5791 5789 5787 5785 5783 5781 5779
5853 5852 5851 5850 5849 5847 5847 5846 5845 5844 5843 5843 5843 5842 5841 5840 5839 5837 5835 5834 5832 5830 5828 5825 5822 5819 5816 5813 5810 5807 5804 5800 5797 5793 5789 5787 5785 5783 5782 5780 5778 5776 5774 5772
5851 5851 5850 5849 5847 5846 5845 5843 5842 5842 5841 5840 5840 5839 5839 5837 5835 5833 5832 5830 5828 5825 5822 5819 5816 5813 5810 5807 5804 5800 5796 5793 5789 5785 5782 5779 5777 5776 5774 5772 5770 5769 5767 5765
5851 5850 5849 5847 5846 5844 5842 5841 5840 5839 5839 5838 5837 5836 5835 5833 5832 5830 5828 5825 5823 5820 5817 5813 5810 5807 5804 5800 5797 5793 5790 5786 5782 5778 5775 5772 5770 5769 5767 5765 5764 5762 5761 5759
5850 5849 5848 5846 5845 5843 5841 5840 5839 5837 5836 5836 5835 5833 5833 5830 5828 5826 5824 5821 5818 5815 5812 5808 5805 5801 5798 5794 5790 5787 5783 5779 5775 5771 5768 5765 5763 5762 5760 5759 5757 5756 5755 5753
5849 5849 5847 5845 5843 5841 5839 5838 5837 5835 5834 5833 5832 5830 5830 5827 5825 5822 5820 5817 5813 5810 5806 5802 5799 5795 5791 5787 5783 5779 5776 5772 5768 5765 5761 5758 5756 5755 5753 5752 5751 5750 5749 5747
5848 5847 5845 5843 5841 5839 5837 5835 5835 5833 5831 5830 5829 5827 5826 5823 5821 5818 5815 5812 5808 5805 5801 5797 5793 5789 5784 5780 5776 5773 5769 5765 5762 5758 5755 5752 5749 5748 5747 5746 5745 5744 5743 5742
5846 5845 5843 5841 5840 5838 5836 5834 5832 5830 5828 5826 5825 5823 5822 5819 5817 5814 5810 5807 5803 5799 5796 5792 5787 5783 5778 5775 5771 5767 5764 5760 5756 5752 5748 5745 5743 5742 5741 5740 5739 5738 5737 5736
5844 5843 5842 5840 5838 5835 5834 5832 5829 5827 5825 5823 5821 5822 5818 5815 5812 5809 5805 5801 5798 5794 5790 5786 5782 5778 5774 5770 5766 5762 5758 5754 5750 5746 5743 5740 5738 5737 5736 5735 5734 5734 5733 5731
5842 5841 5839 5837 5836 5833 5831 5829 5828 5826 5824 5821 5818 5820 5814 5811 5807 5804 5800 5797 5793 5789 5785 5782 5778 5773 5769 5765 5761 5757 5754 5749 5745 5741 5738 5735 5734 5733 5732 5731 5730 5729 5728 5726
5840 5839 5837 5835 5835 5832 5830 5827 5825 5823 5821 5818 5816 5816 5810 5807 5803 5800 5796 5793 5789 5785 5781 5777 5773 5769 5765 5761 5757 5753 5749 5745 5741 5737 5734 5732 5731 5730 5728 5727 5726 5724 5723 5722
5837 5836 5835 5833 5831 5829 5827 5825 5822 5820 5818 5815 5813 5810 5807 5803 5800 5796 5792 5789 5785 5781 5777 5773 5769 5766 5762 5758 5754 5750 5745 5741 5738 5734 5732 5729 5728 5726 5725 5724 5722 5720 5719 5717
5834 5833 5831 5830 5828 5826 5825 5823 5820 5817 5815 5812 5809 5806 5803 5800 5796 5793 5789 5785 5781 5777 5773 5769 5766 5762 5759 5755 5751 5746 5743 5738 5735 5732 5729 5727 5725 5724 5722 5720 5719 5717 5715 5713
5831 5830 5829 5827 5825 5824 5822 5820 5817 5814 5811 5809 5806 5803 5800 5796 5793 5789 5785 5782 5778 5774 5770 5766 5763 5759 5755 5752 5748 5744 5740 5737 5733 5730 5727 5725 5723 5721 5719 5717 5715 5713 5712 5710
5828 5826 5825 5824 5822 5820 5819 5816 5813 5811 5808 5805 5802 5800 5796 5793 5790 5786 5783 5779 5775 5771 5767 5763 5759 5756 5752 5749 5746 5742 5739 5735 5732 5729 5726 5723 5721 5718 5716 5714 5712 5711 5709 5707
5824 5822 5821 5820 5819 5817 5817 5812 5809 5807 5804 5801 5798 5795 5792 5789 5786 5783 5779 5775 5772 5768 5764 5760 5757 5753 5750 5747 5744 5741 5737 5734 5731 5728 5725 5721 5718 5716 5714 5712 5710 5708 5706 5704
5819 5818 5816 5815 5813 5812 5811 5807 5804 5802 5800 5797 5794 5791 5788 5786 5783 5779 5776 5772 5768 5765 5761 5758 5755 5751 5748 5745 5742 5739 5736 5733 5730 5727 5723 5720 5717 5714 5712 5710 5708 5706 5704 5702
5814 5812 5811 5809 5807 5806 5806 5803 5799 5798 5796 5793 5790 5787 5784 5782 5779 5777 5773 5769 5765 5761 5758 5755 5752 5749 5746 5743 5740 5737 5734 5731 5728 5725 5723 5719 5716 5713 5711 5708 5706 5704 5702 5700
5809 5807 5805 5803 5801 5800 5799 5797 5795 5794 5792 5788 5785 5783 5780 5777 5775 5772 5768 5765 5762 5758 5755 5752 5749 5747 5744 5741 5738 5735 5733 5730 5727 5724 5721 5718 5715 5712 5710 5707 5705 5703 5701 5699
5802 5801 5799 5798 5796 5797 5793 5791 5790 5788 5785 5783 5780 5778 5776 5773 5770 5767 5764 5761 5758 5755 5752 5749 5747 5744 5742 5739 5736 5734 5731 5729 5726 5723 5720 5718 5715 5712 5709 5707 5705 5702 5700 5699
5796 5795 5793 5792 5792 5789 5787 5785 5784 5782 5780 5778 5775 5773 5771 5768 5766 5763 5760 5757 5754 5751 5749 5747 5744 5742 5739 5737 5734 5732 5730 5728 5725 5723 5720 5717 5714 5712 5709 5707 5705 5703 5701 5699
5789 5787 5786 5785 5784 5782 5780 5779 5777 5775 5774 5772 5770 5768 5766 5764 5761 5758 5756 5753 5750 5748 5745 5743 5742 5739 5737 5735 5733 5731 5729 5727 5725 5722 5719 5716 5714 5712 5710 5708 5705 5703 5701 5699
5782 5780 5778 5777 5777 5775 5773 5772 5770 5769 5767 5766 5764 5762 5760 5758 5756 5753 5751 5749 5746 5744 5742 5740 5739 5737 5735 5733 5731 5729 5728 5726 5724 5721 5719 5716 5714 5712 5710 5708 5706 5704 5702 5699
5774 5772 5771 5770 5769 5767 5767 5765 5763 5762 5761 5760 5758 5757 5755 5753 5751 5749 5747 5745 5742 5740 5739 5738 5736 5735 5733 5731 5730 5728 5726 5725 5723 5721 5719 5717 5715 5713 5711 5709 5707 5704 5702 5700